Tracking 19636 objects as of 24-May-2019
HD Live streaming from Space Station
objects crossing your sky now

OPS 9441 (DSCS 2-11)

Track OPS 9441 (DSCS 2-11) now!
OPS 9441 (DSCS 2-11) is classified as:


NORAD ID: 11144
Int'l Code: 1978-113A
Perigee: 37,531.6 km
Apogee: 37,746.1 km
Inclination: 15.5 °
Period: 1,531.4 minutes
Semi major axis: 44009 km
RCS: 5.1357 m2 (large)
Launch date: December 14, 1978
Source: United States (US)
Launch site: AIR FORCE EASTERN TEST RANGE (AFETR)
aabbcc
Your satellite tracking list
Your tracking list is empty




NASA's NSSDC Master Catalog

Two Line Element Set (TLE):
1 11144U 78113A   19143.69093385 -.00000121 +00000-0 +00000-0 0  9997
2 11144 015.5110 335.2548 0024374 131.8591 057.7330 00.94032600087277
Source of the keplerian elements: AFSPC